Open Text Current Ratio 2006-2020 | OTEX

Current and historical current ratio for Open Text (OTEX) from 2006 to 2020. Current ratio can be defined as a liquidity ratio that measures a company's ability to pay short-term obligations. Open Text current ratio for the three months ending June 30, 2020 was 1.25.
Open Text Current Ratio Historical Data
Date Current Assets Current Liabilities Current Ratio
2020-06-30 $2.39B $1.90B 1.25
2020-03-31 $2.11B $1.86B 1.14
2019-12-31 $1.35B $2.17B 0.62
2019-09-30 $1.54B $0.95B 1.62
2019-06-30 $1.56B $1.02B 1.54
2019-03-31 $1.40B $1.02B 1.38
2018-12-31 $1.21B $0.91B 1.33
2018-09-30 $1.33B $0.88B 1.51
2018-06-30 $1.33B $1.00B 1.34
2018-03-31 $1.27B $1.30B 0.98
2017-12-31 $1.11B $1.29B 0.86
2017-09-30 $0.96B $1.30B 0.74
2017-06-30 $1.00B $1.13B 0.89
2017-03-31 $0.91B $1.13B 0.81
2016-12-31 $2.12B $0.64B 3.29
2016-09-30 $1.23B $0.67B 1.83
2016-06-30 $1.67B $0.67B 2.49
2016-03-31 $1.26B $0.61B 2.06
2015-12-31 $1.12B $0.56B 2.01
2015-09-30 $1.04B $0.54B 1.94
2015-06-30 $1.07B $0.62B 1.71
2015-03-31 $0.99B $0.60B 1.66
2014-12-31 $0.90B $0.56B 1.60
2014-09-30 $0.82B $0.57B 1.43
2014-06-30 $0.82B $0.64B 1.27
2014-03-31 $0.70B $0.64B 1.10
2013-12-31 $0.76B $0.50B 1.53
2013-09-30 $0.73B $0.52B 1.39
2013-06-30 $0.72B $0.53B 1.36
2013-03-31 $0.71B $0.55B 1.28
2012-12-31 $0.61B $0.48B 1.29
2012-09-30 $0.55B $0.50B 1.10
2012-06-30 $0.79B $0.48B 1.66
2012-03-31 $0.77B $0.48B 1.59
2011-12-31 $0.66B $0.43B 1.54
2011-09-30 $0.35B $0.47B 0.73
2011-06-30 $0.52B $0.42B 1.24
2011-03-31 $0.47B $0.44B 1.07
2010-12-31 $0.55B $0.38B 1.44
2010-09-30 $0.56B $0.40B 1.40
2010-06-30 $0.54B $0.42B 1.28
2010-03-31 $0.51B $0.36B 1.41
2009-12-31 $0.45B $0.33B 1.38
2009-09-30 $0.42B $0.35B 1.22
2009-06-30 $0.44B $0.32B 1.37
2009-03-31 $0.39B $0.32B 1.22
2008-12-31 $0.34B $0.30B 1.12
2008-09-30 $0.40B $0.25B 1.59
2008-06-30 $0.43B $0.30B 1.44
2008-03-31 $0.41B $0.28B 1.46
2007-12-31 $0.34B $0.25B 1.36
2007-09-30 $0.33B $0.25B 1.33
2007-06-30 $0.35B $0.28B 1.24
2007-03-31 $0.31B $0.27B 1.13
2006-12-31 $0.28B $0.24B 1.16
2006-09-30 $0.22B $0.14B 1.59
2006-06-30 $0.23B $0.15B 1.55
2006-03-31 $0.23B $0.15B 1.49
2005-12-31 $0.20B $0.15B 1.32
2005-09-30 $0.18B $0.15B 1.16
2005-06-30 $0.19B $0.17B 1.16
2005-03-31 $0.22B $0.16B 1.34
Sector Industry Market Cap Revenue
Computer and Technology Computer Software $11.403B $3.110B
Open Text Corporation is engaged in development of innovative intranet, extranet and e-Business applications. Since creating one of the first search engines to index the World Wide Web, the company has remained at the forefront of Internet-based technologies. Open Text solutions allow individuals, teams, organizations, and global trading communities to collaborate on projects, share ideas and accelerate innovation to the fastest possible speed. Open Text Corporation is headquartered in Waterloo, Canada.
Stock Name Country Market Cap PE Ratio
Microsoft (MSFT) United States $1000.000B 36.14
Adobe (ADBE) United States $230.160B 59.67
Salesforce, Inc (CRM) United States $220.893B 161.83
SAP SE (SAP) Germany $181.499B 32.91
Oracle (ORCL) United States $180.051B 16.57
Intuit (INTU) United States $83.386B 47.90
VMware (VMW) United States $59.511B 30.33
Autodesk (ADSK) United States $49.952B 114.47
Dassault Systemes SA (DASTY) France $47.891B 52.89
Synopsys (SNPS) United States $31.642B 51.61
Cadence Design Systems (CDNS) United States $28.917B 28.57
ANSYS (ANSS) United States $26.780B 63.84
Citrix Systems (CTXS) United States $16.816B 28.30
SS&C Technologies Holdings (SSNC) United States $15.589B 15.68
Pegasystems (PEGA) United States $9.558B 0.00
PTC (PTC) United States $9.485B 44.39
Nuance Communications (NUAN) United States $9.356B 55.23
Aspen Technology (AZPN) United States $8.636B 38.02
Trend Micro (TMICY) Japan $8.572B 31.28
Manhattan Associates (MANH) United States $5.989B 74.24
Konami (KNMCY) Japan $5.589B 31.08
Descartes Systems Group (DSGX) Canada $4.505B 108.84
Verint Systems (VRNT) United States $3.071B 18.64
ACI Worldwide (ACIW) United States $2.938B 31.16
Blackbaud (BLKB) United States $2.814B 42.05
Cornerstone OnDemand (CSOD) United States $2.218B 25.17
Bottomline Technologies (EPAY) United States $1.875B 127.18
CommVault Systems (CVLT) United States $1.859B 72.85
Progress Software (PRGS) United States $1.601B 14.07
Sapiens (SPNS) Israel $1.472B 34.48
MicroStrategy (MSTR) United States $1.415B 57.53
PROS Holdings (PRO) United States $1.385B 0.00
Simulations Plus (SLP) United States $1.265B 131.44
Rosetta Stone (RST) United States $0.735B 0.00
QAD (QADB) United States $0.644B 1037.67
Magic Software Enterprises (MGIC) Israel $0.607B 18.80
American Software (AMSWA) United States $0.455B 50.00
Avid Technology (AVID) United States $0.361B 29.36
Canaan (CAN) China $0.313B 0.00
OptimizeRx (OPRX) United States $0.295B 0.00
Icad Inc (ICAD) United States $0.210B 0.00
Smith Micro Software (SMSI) United States $0.151B 12.59
ServiceSource (SREV) United States $0.133B 0.00
Park City (PCYG) United States $0.091B 92.80
Neonode (NEON) Sweden $0.083B 0.00
NetSol Technologies (NTWK) United States $0.032B 9.93
GSE Systems (GVP) United States $0.021B 0.00
CounterPath (CPAH) Canada $0.020B 0.00
BSQUARE (BSQR) United States $0.017B 0.00